SCP
0 0 0 0 0 0 0 0 0 0 0 0 0 0 0 0 0 0 0 0 0 0 0 0 0 0 0 0 -0 0 0 0 0 0 0 0 0 0 0 0 0 0 -0 0
0 0 0 0 0 0 0 0 0 0 0 0 0 0 0 0 0 0 0 0 0 0 0 0 0 0 0 -0 0 0 0 0 0 0 0 0 0 0 0 0 0 -0 -0 0
0 0 0 0 0 0 0 0 0 0 0 0 0 0 0 0 0 0 0 0 0 0 0 0 0 0 -0 0 0 0 0 0 0 0 0 0 0 0 0 0 -0 -0 -0 -0
0 0 0 0 0 0 0 0 0 0 0 0 0 0 0 0 0 0 0 0 0 0 0 0 0 0 0 0 0 0 0 0 0 0 0 0 0 0 0 0 -0 -0 -0 -0
0 0 0 0 0 0 0 0 0 0 0 0 0 0 0 0 0 0 0 0 0 0 0 0 -0 0 0 0 0 0 0 0 0 -0 0 0 0 0 0 -0 -0 -0 -0 -0
0 0 0 0 0 0 0 0 0 0 0 0 0 0 0 0 0 0 0 0 -0 0 0 0 0 0 -0 -0 0 0 0 -0 0 -0 0 0 -0 0 0 -0 -0 -0 -0 -0
0 0 0 0 0 0 0 0 0 0 0 0 0 0 0 0 0 0 0 0 0 0 0 -0 0 0 0 -0 -0 -0 -0 0 -0 0 0 -0 0 0 0 -0 -0 -0 -0 -0
0 0 0 0 0 0 0 0 0 0 0 0 0 0 0 0 0 0 0 0 0 0 0 0 0 0 0 0 0 -0 -0 0 -0 -0 -0 -0 -0 0 0 0 -0 -0 -0 -0
0 0 0 0 0 0 0 0 0 0 0 0 0 0 0 0 0 0 0 -0 0 0 0 0 0 0 0 0 0 0 -0 -0 -0 -0 0 0 -0 0 0 0 0 0 0 0
0 0 0 0 0 0 0 0 0 0 0 0 0 0 0 0 0 0 0 -0 0 0 0 0 0 0 0 0 0 0 0 0 -0 -0 0 -0 -0 0 0 0 0 0 0 0
0 0 0 0 0 0 0 0 0 0 0 0 0 0 0 0 0 0 0 -0 -0 0 -0 0 0 0 0 0 0 -0 -0 -0 -0 0 0 0 -0 -0 0 0 0 0 0 0
0 0 0 -0 0 0 0 0 0 0 0 0 0 0 0 -0 -0 0 0 -0 -0 0 0 0 0 0 0 0 0 0 0 0 0 0 0 0 -0 -0 -0 0 0 0 0 0
0 0 0 0 -0 0 0 0 0 0 0 0 0 0 0 0 -0 -0 0 -0 -0 -0 0 0 0 0 0 0 0 0 0 -0 0 0 0 0 -0 0 0 0 0 0 0 0
0 0 0 0 0 0 0 0 0 0 0 0 0 0 0 -0 0 -0 -0 0 0 0 0 0 0 0 0 0 0 0 0 0 0 0 0 0 0 -0 -0 0 0 0 0 0
0 0 0 0 0 0 0 0 0 0 0 0 0 0 0 -0 0 -0 -0 0 0 0 0 0 0 0 0 0 0 0 0 -0 0 0 -0 -0 -0 0 0 0 0 0 0 0
0 0 0 0 0 0 0 0 0 0 0 0 0 0 0 0 0 0 -0 -0 0 0 0 -0 -0 0 0 -0 0 0 -0 0 0 0 -0 -0 -0 0 0 0 0 0 0 0
0 0 0 0 0 0 0 0 0 0 0 0 0 0 -0 -0 0 0 0 0 0 0 0 0 -0 -0 -0 0 0 0 -0 -0 -0 -0 -0 -0 -0 -0 0 0 0 0 0 0
0 0 0 0 0 0 0 0 0 0 0 0 0 0 0 0 0 0 0 0 0 0 0 0 0 0 -0 0 -0 -0 -0 0 -0 -0 -0 -0 -0 -0 0 -0 0 0 0 0
0 0 0 0 0 0 0 0 0 0 0 0 0 0 0 0 0 0 0 0 0 0 0 0 0 -0 -0 -0 -0 0 0 -0 -0 -0 -0 -0 -0 -0 0 0 0 0 0 0
0 0 0 0 0 0 0 0 0 0 0 0 0 0 0 0 0 0 0 0 0 0 0 0 0 -0 0 -0 -0 -0 -0 0 -0 -0 0 0 -0 -0 0 -0 -0 0 0 0
0 0 0 0 0 0 0 0 0 0 0 -0 0 0 0 0 0 0 0 0 0 0 0 0 -0 -0 0 0 0 -0 -0 -0 -0 -0 -0 -0 -0 -0 -0 0 0 0 0 0
0 0 0 0 0 0 0 0 0 0 0 0 0 0 0 0 0 0 0 0 0 0 0 0 0 -0 0 0 0 0 -0 -0 -0 -0 -0 -0 -0 -0 -0 0 0 0 0 0
0 0 0 0 0 0 0 0 0 0 0 0 0 0 0 0 0 0 0 0 0 0 0 0 0 0 -0 0 0 0 -0 -0 -0 -0 -0 -0 -0 -0 -0 -0 0 0 0 0
0 0 0 0 0 0 0 0 0 0 0 0 0 0 0 0 0 0 0 0 0 0 0 0 0 0 0 0 0 0 0 0 -0 -0 -0 -0 -0 -0 -0 0 0 0 0 0
0 0 0 0 0 0 0 0 0 0 0 0 0 0 0 0 0 0 0 0 0 0 0 0 0 0 0 -0 0 -0 -0 0 0 -0 -0 -0 -0 -0 -0 -0 0 -0 0 0
0 0 0 0 0 0 0 0 0 0 0 0 0 0 0 0 0 0 0 0 0 0 0 0 0 0 0 0 0 -0 0 0 0 -0 0 0 0 0 -0 -0 -0 -0 -0 -0
0 0 0 0 0 0 0 0 0 0 0 0 0 0 0 0 0 0 0 0 0 0 0 0 0 0 0 0 0 0 0 0 -0 0 0 0 0 0 0 -0 -0 -0 -0 -0
Wind_Speed_500mb
60 58 59 59 62 66 55 18 3 11 13 7 4 2 10 20 15 9 10 9 16 13 8 10 8 11 5 13 6 10 2 2 7 10 10 10 4 6 2 7 16 9 6 12
65 57 57 55 53 59 55 25 9 9 15 4 6 10 11 12 8 10 6 7 7 6 7 10 9 11 11 28 5 7 3 3 6 10 6 11 4 6 6 2 1 10 7 14
63 63 56 56 47 47 38 15 8 8 11 7 3 7 13 9 15 15 7 10 12 5 8 14 12 16 12 10 5 18 2 5 10 9 5 5 8 16 15 6 6 10 21 19
61 62 59 54 46 37 25 15 3 6 8 6 11 8 10 16 12 8 11 6 8 17 13 24 29 25 15 17 12 2 9 8 6 15 21 16 15 26 25 31 25 15 7 5
60 60 59 51 45 37 17 15 10 8 14 26 8 9 6 16 16 9 20 14 31 26 26 27 41 37 16 18 11 14 12 7 5 22 20 23 27 34 32 31 38 32 29 30
58 60 58 44 34 35 13 18 8 7 13 8 4 7 8 16 31 18 23 31 33 29 35 36 59 64 65 30 9 12 11 5 2 9 10 8 22 32 43 35 28 27 28 22
56 59 53 38 23 28 24 23 15 3 8 5 7 13 33 32 22 24 35 42 22 26 68 79 47 40 34 30 29 26 6 12 6 7 3 6 13 20 24 30 22 30 15 30
58 52 47 36 18 24 25 24 14 6 8 14 25 15 12 33 35 31 30 47 47 57 31 10 13 7 5 4 12 26 27 9 4 6 7 17 23 4 10 9 10 19 30 33
56 53 48 33 16 21 25 26 23 15 10 10 23 26 25 9 10 9 15 41 44 18 5 6 7 5 8 5 6 11 23 25 12 6 7 8 2 5 22 20 14 6 7 14
55 53 44 35 25 19 25 27 29 20 14 30 16 16 12 15 10 8 16 24 14 17 8 7 5 6 8 8 12 7 2 7 23 16 8 12 10 16 17 11 2 17 17 23
54 51 43 30 33 21 27 28 30 31 21 52 46 31 31 31 21 5 16 21 7 9 12 7 6 5 7 6 6 10 5 4 6 7 9 12 24 24 9 8 14 20 24 19
50 47 41 26 24 23 26 34 28 27 46 60 81 81 64 69 63 31 9 9 9 6 4 3 5 5 6 9 6 2 5 3 5 5 5 15 33 36 58 65 41 16 16 20
48 45 39 30 23 22 24 34 32 38 37 52 38 23 5 4 15 22 18 11 9 7 9 4 4 8 4 5 5 7 5 11 4 6 7 15 31 62 23 25 48 33 39 25
47 44 39 31 26 29 32 37 35 35 20 11 21 18 46 43 33 33 39 39 13 16 8 7 4 7 10 5 7 6 7 11 10 8 10 21 24 55 41 58 55 58 50 38
46 42 36 32 32 31 31 36 44 44 32 9 30 54 5 13 20 20 34 44 42 16 4 6 6 8 7 4 4 5 7 7 7 6 22 19 22 45 50 61 55 55 52 45
44 41 35 29 26 25 22 13 5 9 34 8 7 18 14 17 5 10 28 36 29 13 7 9 11 11 7 4 5 9 22 28 22 8 22 20 15 33 37 37 46 44 50 49
42 40 35 28 24 21 17 9 12 10 25 7 9 12 9 19 7 9 14 21 16 12 7 8 8 9 8 2 5 11 30 31 34 39 23 19 26 23 30 24 24 33 35 45
42 37 31 29 25 25 25 10 27 17 12 10 5 8 14 2 4 6 7 8 11 11 7 8 7 9 2 5 11 17 18 21 34 36 30 25 34 43 41 35 33 35 27 34
36 27 15 9 5 5 2 13 15 32 21 10 7 3 7 3 8 11 7 7 5 9 4 6 3 4 7 10 7 6 14 17 21 26 32 30 38 45 47 41 34 28 28 25
27 12 4 5 3 8 12 5 6 14 20 15 8 10 6 7 3 4 1 4 3 4 6 4 4 7 16 10 7 4 13 20 18 28 33 30 32 39 40 37 26 21 17 30
29 19 6 9 13 11 5 6 8 8 6 11 11 20 8 10 5 6 1 3 2 4 4 2 5 6 8 14 9 4 5 11 18 23 25 26 22 34 36 40 40 30 24 25
35 24 23 14 3 7 3 6 6 8 8 8 7 10 18 10 14 3 4 3 3 7 7 1 6 7 11 20 11 6 8 11 17 16 20 22 23 30 36 38 40 39 24 10
6 6 7 5 5 5 9 9 5 4 3 1 14 8 10 9 11 3 4 4 7 5 4 6 8 5 18 19 12 13 10 11 13 15 19 23 26 29 36 38 38 34 32 24
4 6 9 8 8 9 9 7 4 7 16 33 29 16 13 9 4 4 5 5 5 5 3 10 6 13 25 24 19 17 15 12 11 11 13 18 24 27 33 38 39 37 38 35
8 8 9 10 19 16 11 9 16 18 28 23 28 9 7 3 5 4 4 4 6 10 9 7 13 21 31 27 23 20 19 15 11 14 14 14 17 21 26 30 34 39 41 48
9 13 11 19 7 10 5 11 20 22 30 34 8 2 4 7 4 6 11 11 11 8 7 14 12 27 30 24 21 21 22 19 7 11 11 8 11 12 20 24 28 34 42 47
9 13 24 39 35 28 24 19 37 34 20 4 5 4 11 3 5 5 8 9 7 12 14 13 17 32 40 27 23 21 20 26 17 20 19 12 14 14 13 19 24 27 36 44
Wind_Direction_500mb
349 349 350 354 352 355 1 360 43 18 343 30 47 25 310 304 286 309 279 279 254 247 291 277 267 249 215 317 320 307 5 302 277 263 274 332 5 293 258 199 243 264 123 286
354 348 348 353 355 356 353 346 312 348 357 70 335 306 299 276 302 315 292 275 259 12 296 294 262 274 304 328 295 251 217 256 311 326 14 39 359 315 269 223 301 218 224 245
344 350 347 347 357 356 354 353 355 344 55 87 121 306 316 297 297 284 301 274 278 299 266 237 271 265 297 279 282 278 259 205 214 214 229 165 292 294 306 221 254 263 245 299
342 343 346 343 350 3 4 7 11 352 305 322 316 272 281 282 305 282 289 264 228 295 295 289 265 267 273 268 276 30 155 241 231 261 273 279 256 266 276 270 253 254 311 269
337 340 341 344 348 13 6 3 357 332 287 291 278 273 266 289 318 306 300 257 306 301 281 274 286 282 259 256 203 184 183 244 305 287 259 250 264 264 250 255 254 259 258 270
333 336 337 347 343 355 350 346 306 286 284 294 360 251 302 307 313 285 275 290 299 293 288 294 283 273 267 250 215 199 176 208 188 255 242 300 274 253 250 248 225 218 234 245
329 331 333 338 337 329 330 337 332 295 275 259 231 283 291 288 291 282 285 296 288 282 305 305 293 263 253 244 226 210 209 182 187 264 11 258 247 314 297 231 224 219 231 243
327 332 334 326 328 316 311 309 305 234 270 261 291 286 282 299 292 279 280 290 308 309 312 318 327 341 209 194 227 205 204 188 245 235 213 286 290 24 11 347 278 238 239 261
332 336 328 324 301 307 299 299 285 245 274 245 282 309 292 284 304 286 283 324 324 330 9 327 330 314 291 326 300 353 192 210 207 171 237 266 241 31 342 323 260 185 242 272
332 329 328 328 313 283 297 291 288 253 254 282 288 284 287 293 282 277 296 328 317 14 8 343 331 297 334 330 326 331 181 183 219 226 252 278 47 333 313 235 224 322 322 290
325 327 329 329 328 288 291 282 292 277 253 287 278 266 264 277 246 253 318 331 338 335 4 342 327 295 309 299 280 312 304 295 207 215 227 251 7 325 232 10 314 321 304 285
324 326 326 314 317 316 301 292 290 298 251 275 294 294 280 256 247 265 281 274 290 258 329 302 296 297 295 305 296 351 302 253 286 263 306 315 301 271 277 274 267 320 315 347
320 321 323 318 295 296 286 285 281 289 279 295 294 297 255 27 296 232 219 239 232 243 242 294 280 278 279 304 316 290 261 216 238 305 232 286 322 315 347 55 43 37 45 29
316 317 318 312 301 292 289 273 277 276 272 280 281 307 297 290 279 241 245 240 248 279 261 251 250 266 205 281 295 292 250 296 286 258 270 335 352 342 18 41 44 51 47 39
316 316 316 312 301 300 291 283 275 261 240 280 293 309 325 320 265 251 220 232 242 269 256 232 246 256 272 250 285 268 318 302 346 334 347 343 8 357 28 31 29 39 26 29
318 317 315 309 304 302 316 310 290 234 211 256 288 312 306 337 296 203 209 229 240 241 256 246 264 254 233 310 282 266 344 343 356 306 336 17 360 24 38 29 13 30 32 32
319 315 308 299 292 272 236 242 287 309 191 254 274 296 284 311 270 222 216 222 225 232 255 244 258 285 219 197 263 300 341 352 30 30 37 24 35 36 53 66 31 33 12 26
319 316 307 299 279 257 266 280 240 218 212 253 275 277 316 282 345 294 229 199 200 223 252 271 242 294 292 258 259 327 351 10 25 38 49 52 62 50 46 44 42 36 359 4
322 318 318 314 8 164 269 317 280 233 219 289 219 245 266 284 239 231 239 225 233 190 226 251 184 302 241 221 242 11 11 7 6 47 57 50 50 45 38 38 46 45 17 8
334 325 280 210 191 275 297 234 215 173 211 233 252 207 267 302 294 274 166 221 278 270 229 259 191 260 267 232 206 347 19 21 43 67 56 49 51 45 36 41 44 44 37 35
355 343 309 307 279 296 225 228 199 176 250 228 244 232 234 261 190 233 146 244 281 293 296 349 299 280 242 197 203 359 72 75 73 83 71 57 72 63 47 37 41 45 43 42
321 312 305 305 271 240 212 220 195 197 232 204 203 250 217 251 224 186 205 187 36 251 337 31 274 259 196 175 166 147 129 114 83 72 60 59 75 62 58 45 39 43 47 72
321 282 265 248 242 250 212 220 215 212 200 22 301 252 223 210 214 213 96 114 235 345 38 241 234 261 192 172 156 169 167 149 109 96 79 89 92 68 54 50 44 44 52 62
286 255 257 208 219 237 205 204 171 38 293 290 309 290 192 181 166 170 157 208 70 11 305 239 250 227 188 190 191 180 175 157 141 114 71 90 96 77 51 41 47 50 54 57
256 234 240 237 239 263 269 280 296 289 308 324 324 258 216 160 221 220 113 142 248 205 232 236 250 202 188 193 187 191 183 168 173 154 127 112 110 90 74 56 53 55 61 61
237 233 255 260 293 287 294 307 314 332 322 322 237 281 283 236 183 188 215 147 221 249 221 244 240 200 189 193 199 203 196 181 167 179 159 127 115 95 74 65 65 64 65 67
242 251 250 260 280 270 280 304 309 318 320 259 147 217 224 165 240 249 174 205 225 241 227 219 221 205 197 193 204 214 228 207 192 173 179 174 151 132 94 80 82 74 72 69
Wind_Speed_850mb
60 58 59 59 62 66 55 18 3 11 13 7 4 2 10 20 15 9 10 9 16 13 8 10 8 11 5 13 6 10 2 2 7 10 10 10 4 6 2 7 16 9 6 12
65 57 57 55 53 59 55 25 9 9 15 4 6 10 11 12 8 10 6 7 7 6 7 10 9 11 11 28 5 7 3 3 6 10 6 11 4 6 6 2 1 10 7 14
63 63 56 56 47 47 38 15 8 8 11 7 3 7 13 9 15 15 7 10 12 5 8 14 12 16 12 10 5 18 2 5 10 9 5 5 8 16 15 6 6 10 21 19
61 62 59 54 46 37 25 15 3 6 8 6 11 8 10 16 12 8 11 6 8 17 13 24 29 25 15 17 12 2 9 8 6 15 21 16 15 26 25 31 25 15 7 5
60 60 59 51 45 37 17 15 10 8 14 26 8 9 6 16 16 9 20 14 31 26 26 27 41 37 16 18 11 14 12 7 5 22 20 23 27 34 32 31 38 32 29 30
58 60 58 44 34 35 13 18 8 7 13 8 4 7 8 16 31 18 23 31 33 29 35 36 59 64 65 30 9 12 11 5 2 9 10 8 22 32 43 35 28 27 28 22
56 59 53 38 23 28 24 23 15 3 8 5 7 13 33 32 22 24 35 42 22 26 68 79 47 40 34 30 29 26 6 12 6 7 3 6 13 20 24 30 22 30 15 30
58 52 47 36 18 24 25 24 14 6 8 14 25 15 12 33 35 31 30 47 47 57 31 10 13 7 5 4 12 26 27 9 4 6 7 17 23 4 10 9 10 19 30 33
56 53 48 33 16 21 25 26 23 15 10 10 23 26 25 9 10 9 15 41 44 18 5 6 7 5 8 5 6 11 23 25 12 6 7 8 2 5 22 20 14 6 7 14
55 53 44 35 25 19 25 27 29 20 14 30 16 16 12 15 10 8 16 24 14 17 8 7 5 6 8 8 12 7 2 7 23 16 8 12 10 16 17 11 2 17 17 23
54 51 43 30 33 21 27 28 30 31 21 52 46 31 31 31 21 5 16 21 7 9 12 7 6 5 7 6 6 10 5 4 6 7 9 12 24 24 9 8 14 20 24 19
50 47 41 26 24 23 26 34 28 27 46 60 81 81 64 69 63 31 9 9 9 6 4 3 5 5 6 9 6 2 5 3 5 5 5 15 33 36 58 65 41 16 16 20
48 45 39 30 23 22 24 34 32 38 37 52 38 23 5 4 15 22 18 11 9 7 9 4 4 8 4 5 5 7 5 11 4 6 7 15 31 62 23 25 48 33 39 25
47 44 39 31 26 29 32 37 35 35 20 11 21 18 46 43 33 33 39 39 13 16 8 7 4 7 10 5 7 6 7 11 10 8 10 21 24 55 41 58 55 58 50 38
46 42 36 32 32 31 31 36 44 44 32 9 30 54 5 13 20 20 34 44 42 16 4 6 6 8 7 4 4 5 7 7 7 6 22 19 22 45 50 61 55 55 52 45
44 41 35 29 26 25 22 13 5 9 34 8 7 18 14 17 5 10 28 36 29 13 7 9 11 11 7 4 5 9 22 28 22 8 22 20 15 33 37 37 46 44 50 49
42 40 35 28 24 21 17 9 12 10 25 7 9 12 9 19 7 9 14 21 16 12 7 8 8 9 8 2 5 11 30 31 34 39 23 19 26 23 30 24 24 33 35 45
42 37 31 29 25 25 25 10 27 17 12 10 5 8 14 2 4 6 7 8 11 11 7 8 7 9 2 5 11 17 18 21 34 36 30 25 34 43 41 35 33 35 27 34
36 27 15 9 5 5 2 13 15 32 21 10 7 3 7 3 8 11 7 7 5 9 4 6 3 4 7 10 7 6 14 17 21 26 32 30 38 45 47 41 34 28 28 25
27 12 4 5 3 8 12 5 6 14 20 15 8 10 6 7 3 4 1 4 3 4 6 4 4 7 16 10 7 4 13 20 18 28 33 30 32 39 40 37 26 21 17 30
29 19 6 9 13 11 5 6 8 8 6 11 11 20 8 10 5 6 1 3 2 4 4 2 5 6 8 14 9 4 5 11 18 23 25 26 22 34 36 40 40 30 24 25
35 24 23 14 3 7 3 6 6 8 8 8 7 10 18 10 14 3 4 3 3 7 7 1 6 7 11 20 11 6 8 11 17 16 20 22 23 30 36 38 40 39 24 10
6 6 7 5 5 5 9 9 5 4 3 1 14 8 10 9 11 3 4 4 7 5 4 6 8 5 18 19 12 13 10 11 13 15 19 23 26 29 36 38 38 34 32 24
4 6 9 8 8 9 9 7 4 7 16 33 29 16 13 9 4 4 5 5 5 5 3 10 6 13 25 24 19 17 15 12 11 11 13 18 24 27 33 38 39 37 38 35
8 8 9 10 19 16 11 9 16 18 28 23 28 9 7 3 5 4 4 4 6 10 9 7 13 21 31 27 23 20 19 15 11 14 14 14 17 21 26 30 34 39 41 48
9 13 11 19 7 10 5 11 20 22 30 34 8 2 4 7 4 6 11 11 11 8 7 14 12 27 30 24 21 21 22 19 7 11 11 8 11 12 20 24 28 34 42 47
9 13 24 39 35 28 24 19 37 34 20 4 5 4 11 3 5 5 8 9 7 12 14 13 17 32 40 27 23 21 20 26 17 20 19 12 14 14 13 19 24 27 36 44
Wind_Direction_850mb
349 349 350 354 352 355 1 360 43 18 343 30 47 25 310 304 286 309 279 279 254 247 291 277 267 249 215 317 320 307 5 302 277 263 274 332 5 293 258 199 243 264 123 286
354 348 348 353 355 356 353 346 312 348 357 70 335 306 299 276 302 315 292 275 259 12 296 294 262 274 304 328 295 251 217 256 311 326 14 39 359 315 269 223 301 218 224 245
344 350 347 347 357 356 354 353 355 344 55 87 121 306 316 297 297 284 301 274 278 299 266 237 271 265 297 279 282 278 259 205 214 214 229 165 292 294 306 221 254 263 245 299
342 343 346 343 350 3 4 7 11 352 305 322 316 272 281 282 305 282 289 264 228 295 295 289 265 267 273 268 276 30 155 241 231 261 273 279 256 266 276 270 253 254 311 269
337 340 341 344 348 13 6 3 357 332 287 291 278 273 266 289 318 306 300 257 306 301 281 274 286 282 259 256 203 184 183 244 305 287 259 250 264 264 250 255 254 259 258 270
333 336 337 347 343 355 350 346 306 286 284 294 360 251 302 307 313 285 275 290 299 293 288 294 283 273 267 250 215 199 176 208 188 255 242 300 274 253 250 248 225 218 234 245
329 331 333 338 337 329 330 337 332 295 275 259 231 283 291 288 291 282 285 296 288 282 305 305 293 263 253 244 226 210 209 182 187 264 11 258 247 314 297 231 224 219 231 243
327 332 334 326 328 316 311 309 305 234 270 261 291 286 282 299 292 279 280 290 308 309 312 318 327 341 209 194 227 205 204 188 245 235 213 286 290 24 11 347 278 238 239 261
332 336 328 324 301 307 299 299 285 245 274 245 282 309 292 284 304 286 283 324 324 330 9 327 330 314 291 326 300 353 192 210 207 171 237 266 241 31 342 323 260 185 242 272
332 329 328 328 313 283 297 291 288 253 254 282 288 284 287 293 282 277 296 328 317 14 8 343 331 297 334 330 326 331 181 183 219 226 252 278 47 333 313 235 224 322 322 290
325 327 329 329 328 288 291 282 292 277 253 287 278 266 264 277 246 253 318 331 338 335 4 342 327 295 309 299 280 312 304 295 207 215 227 251 7 325 232 10 314 321 304 285
324 326 326 314 317 316 301 292 290 298 251 275 294 294 280 256 247 265 281 274 290 258 329 302 296 297 295 305 296 351 302 253 286 263 306 315 301 271 277 274 267 320 315 347
320 321 323 318 295 296 286 285 281 289 279 295 294 297 255 27 296 232 219 239 232 243 242 294 280 278 279 304 316 290 261 216 238 305 232 286 322 315 347 55 43 37 45 29
316 317 318 312 301 292 289 273 277 276 272 280 281 307 297 290 279 241 245 240 248 279 261 251 250 266 205 281 295 292 250 296 286 258 270 335 352 342 18 41 44 51 47 39
316 316 316 312 301 300 291 283 275 261 240 280 293 309 325 320 265 251 220 232 242 269 256 232 246 256 272 250 285 268 318 302 346 334 347 343 8 357 28 31 29 39 26 29
318 317 315 309 304 302 316 310 290 234 211 256 288 312 306 337 296 203 209 229 240 241 256 246 264 254 233 310 282 266 344 343 356 306 336 17 360 24 38 29 13 30 32 32
319 315 308 299 292 272 236 242 287 309 191 254 274 296 284 311 270 222 216 222 225 232 255 244 258 285 219 197 263 300 341 352 30 30 37 24 35 36 53 66 31 33 12 26
319 316 307 299 279 257 266 280 240 218 212 253 275 277 316 282 345 294 229 199 200 223 252 271 242 294 292 258 259 327 351 10 25 38 49 52 62 50 46 44 42 36 359 4
322 318 318 314 8 164 269 317 280 233 219 289 219 245 266 284 239 231 239 225 233 190 226 251 184 302 241 221 242 11 11 7 6 47 57 50 50 45 38 38 46 45 17 8
334 325 280 210 191 275 297 234 215 173 211 233 252 207 267 302 294 274 166 221 278 270 229 259 191 260 267 232 206 347 19 21 43 67 56 49 51 45 36 41 44 44 37 35
355 343 309 307 279 296 225 228 199 176 250 228 244 232 234 261 190 233 146 244 281 293 296 349 299 280 242 197 203 359 72 75 73 83 71 57 72 63 47 37 41 45 43 42
321 312 305 305 271 240 212 220 195 197 232 204 203 250 217 251 224 186 205 187 36 251 337 31 274 259 196 175 166 147 129 114 83 72 60 59 75 62 58 45 39 43 47 72
321 282 265 248 242 250 212 220 215 212 200 22 301 252 223 210 214 213 96 114 235 345 38 241 234 261 192 172 156 169 167 149 109 96 79 89 92 68 54 50 44 44 52 62
286 255 257 208 219 237 205 204 171 38 293 290 309 290 192 181 166 170 157 208 70 11 305 239 250 227 188 190 191 180 175 157 141 114 71 90 96 77 51 41 47 50 54 57
256 234 240 237 239 263 269 280 296 289 308 324 324 258 216 160 221 220 113 142 248 205 232 236 250 202 188 193 187 191 183 168 173 154 127 112 110 90 74 56 53 55 61 61
237 233 255 260 293 287 294 307 314 332 322 322 237 281 283 236 183 188 215 147 221 249 221 244 240 200 189 193 199 203 196 181 167 179 159 127 115 95 74 65 65 64 65 67
242 251 250 260 280 270 280 304 309 318 320 259 147 217 224 165 240 249 174 205 225 241 227 219 221 205 197 193 204 214 228 207 192 173 179 174 151 132 94 80 82 74 72 69